CDT,Max TemperatureF,Mean TemperatureF,Min TemperatureF,Max Dew PointF,MeanDew PointF,Min DewpointF,Max Humidity, Mean Humidity, Min Humidity, Max Sea Level PressureIn, Mean Sea Level PressureIn, Min Sea Level PressureIn, Max VisibilityMiles, Mean VisibilityMiles, Min VisibilityMiles, Max Wind SpeedMPH, Mean Wind SpeedMPH, Max Gust SpeedMPH,PrecipitationIn, CloudCover, Events, WindDirDegrees
2012-9-1,93,78,64,68,64,60,94,65,32,30.05,29.99,29.94,10,10,7,10,4,18,0.00,0,,27
2012-9-2,96,80,63,68,64,61,94,64,30,29.99,29.93,29.86,10,10,4,10,4,,0.00,0,,136
2012-9-3,83,77,71,74,70,65,84,75,64,29.95,29.89,29.84,10,10,7,14,6,22,0.00,1,Rain,105
2012-9-4,101,83,65,70,62,50,96,57,22,29.91,29.84,29.75,10,9,3,24,5,30,0.00,0,,181
2012-9-5,90,77,63,63,53,42,85,46,21,29.97,29.88,29.75,10,10,10,20,8,28,0.00,0,,360
2012-9-6,93,72,51,63,52,45,80,49,28,30.03,29.91,29.79,10,10,10,16,6,24,0.00,0,,139
2012-9-7,74,62,51,64,54,45,86,65,39,30.14,29.98,29.80,10,10,5,26,9,33,0.02,2,Rain-Thunderstorm,340
2012-9-8,85,64,44,48,41,32,91,52,15,30.22,30.12,30.00,10,10,10,18,6,30,0.00,0,,301
2012-9-9,78,61,44,46,43,40,87,50,26,30.25,30.17,30.07,10,10,10,9,6,,0.00,0,,53
2012-9-10,88,70,52,52,48,46,81,49,23,30.15,30.04,29.93,10,10,10,21,10,28,0.00,0,,169
2012-9-11,95,78,62,52,48,44,63,37,18,29.95,29.91,29.85,10,10,10,25,15,33,0.00,0,,176
2012-9-12,84,70,55,57,51,43,100,49,32,30.26,30.02,29.89,10,9,2,29,13,39,1.40,3,Rain-Thunderstorm,83
2012-9-13,64,58,51,56,49,43,100,79,47,30.42,30.36,30.23,10,10,5,20,10,28,0.37,3,Rain-Thunderstorm,37
2012-9-14,77,61,45,49,40,27,88,54,19,30.41,30.36,30.30,10,10,10,10,3,16,0.00,0,,187
2012-9-15,76,60,45,59,49,40,85,63,46,30.30,30.21,30.10,10,10,10,13,4,16,0.00,1,,170
2012-9-16,77,67,57,60,56,53,90,72,45,30.11,30.02,29.94,10,8,1,12,5,17,0.00,3,,191
2012-9-17,66,57,48,61,51,38,94,77,37,30.07,29.98,29.90,10,8,0,24,6,30,0.00,3,Fog-Rain,51
2012-9-18,73,56,39,44,37,28,88,54,21,30.14,30.06,29.95,10,10,10,15,3,20,0.00,1,,182
2012-9-19,91,72,52,46,39,23,77,41,9,30.02,29.90,29.82,10,10,10,22,9,28,0.00,0,,195
2012-9-20,74,59,44,42,32,17,79,41,13,30.10,30.03,29.95,10,10,2,9,3,,0.00,0,,229
2012-9-21,78,64,50,42,32,16,71,37,10,29.97,29.92,29.86,10,10,3,26,8,34,0.00,0,,306
2012-9-22,66,54,41,41,24,4,75,37,9,30.30,30.21,29.97,10,10,7,16,5,21,0.00,0,,9
2012-9-23,71,53,35,34,28,21,81,45,17,30.35,30.27,30.20,10,10,10,8,2,,0.00,0,,138
2012-9-24,77,61,45,53,41,33,73,47,34,30.19,30.00,29.82,10,10,10,12,3,,0.00,0,,148
2012-9-25,84,68,51,52,45,36,86,49,18,29.88,29.85,29.81,10,10,7,9,4,,0.00,0,,33
2012-9-26,75,62,46,45,37,30,69,40,20,30.15,30.03,29.86,10,10,4,13,5,17,0.00,0,,53
2012-9-27,78,58,39,40,29,13,85,43,9,30.22,30.16,30.11,10,10,5,9,2,,0.00,0,,57
2012-9-28,77,60,42,48,37,28,77,48,17,30.21,30.15,30.11,10,10,7,7,1,,0.00,0,,79
2012-9-29,78,60,41,47,36,28,84,48,16,30.19,30.12,30.05,10,10,7,7,1,,0.00,0,,122
2012-9-30,80,64,47,44,38,30,79,48,17,30.06,29.99,29.91,10,10,7,7,1,,0.00,0,,188